Wind_Speed
62 62 62 61 61 61 60 60 60 59 59 58 58 58 58 58 57 57 57 58 58 58 57 57 56 56 56 56 56 56 56 56 55 52 52 51 51 50 50 50 50 49 49
62 63 63 63 63 63 62 62 62 61 61 61 61 61 61 60 60 59 59 59 59 58 58 58 58 57 57 57 57 57 56 56 56 54 52 51 51 51 50 50 50 50 50
62 63 64 64 64 64 64 64 64 63 63 63 63 62 62 61 61 61 60 59 59 59 59 59 58 58 58 58 57 57 56 56 56 55 53 52 52 52 51 50 50 50 50
62 63 63 64 64 64 65 65 65 65 65 64 64 63 63 62 62 61 61 60 60 60 60 59 59 59 58 58 57 57 56 56 56 56 54 53 53 52 52 51 50 50 49
61 62 62 64 64 65 65 65 65 65 65 65 65 64 64 63 62 62 61 61 61 61 60 60 59 58 58 58 58 57 57 56 56 55 54 53 53 52 51 50 51 51 51
61 61 62 64 65 65 65 65 65 65 66 66 65 65 64 64 63 62 62 62 62 61 60 60 59 59 58 58 57 57 56 56 56 55 54 53 52 52 51 51 51 51 51
62 62 63 64 64 64 65 65 65 65 66 66 66 65 65 65 64 63 63 62 62 61 61 60 59 58 58 58 57 56 56 55 55 55 54 53 52 51 51 51 51 51 50
63 63 64 65 65 65 65 65 65 65 66 66 66 65 65 64 64 64 64 64 63 62 61 60 59 58 58 57 56 56 55 55 55 55 54 53 52 51 51 51 51 51 50
64 64 64 65 65 65 65 66 66 67 66 66 66 65 65 65 64 64 65 64 63 62 61 60 59 59 58 57 57 56 55 54 55 55 54 53 52 52 51 51 51 51 50
63 64 66 66 67 67 67 67 68 68 68 68 67 67 66 65 64 65 65 65 64 63 62 60 59 58 57 57 57 57 56 55 55 55 53 53 52 52 51 51 51 51 51
64 65 66 67 68 68 69 69 69 69 69 68 68 67 66 65 64 64 64 65 64 62 61 60 59 58 58 57 57 57 57 56 56 54 53 53 52 52 52 52 52 51 51
65 65 66 66 67 67 68 69 70 70 70 69 68 68 67 67 66 66 65 65 64 62 61 60 59 58 58 58 58 57 57 56 55 54 53 52 52 53 52 52 52 52 52
65 66 66 67 67 67 68 69 70 71 70 70 69 69 68 68 68 67 66 65 64 62 61 60 59 59 59 58 58 57 56 56 55 54 53 53 53 53 53 53 53 53 53
66 66 67 68 68 68 69 70 70 71 71 71 70 70 69 68 67 67 67 66 64 63 62 61 60 60 60 59 58 57 56 55 55 54 54 54 54 54 54 54 54 54 53
65 65 66 67 67 68 69 70 70 70 70 71 69 69 69 68 67 66 66 66 65 63 62 61 61 61 60 59 58 57 56 55 55 55 55 55 54 54 54 54 54 54 53
62 63 64 64 65 66 67 68 69 69 69 69 68 67 67 66 66 65 64 64 63 63 63 62 61 61 61 60 59 58 57 56 56 56 56 55 55 55 55 54 55 54 54
60 61 61 63 64 65 66 67 67 67 67 66 66 66 66 65 64 63 63 63 63 64 64 63 62 62 61 60 60 59 58 58 58 57 57 57 57 56 56 55 55 55 54
60 60 61 62 62 63 64 64 65 65 64 63 63 64 64 63 62 62 62 63 63 64 63 63 63 62 61 60 60 59 59 59 59 58 58 58 57 57 56 56 55 55 55
60 59 60 60 60 59 59 60 60 60 60 60 61 61 61 62 61 61 61 62 62 63 63 63 63 62 62 61 61 60 59 59 58 58 58 58 58 58 57 57 56 56 56
59 59 58 57 57 57 57 57 57 57 57 58 58 59 59 59 59 60 61 61 61 62 62 62 62 62 61 61 60 60 59 59 58 59 59 58 58 58 58 57 57 57 57
58 57 57 57 56 56 56 55 55 55 55 56 57 57 57 58 59 60 60 61 61 61 61 61 60 61 60 60 60 60 59 59 59 59 59 58 58 58 58 58 58 58 59
58 57 57 56 56 55 54 54 54 54 55 54 54 55 56 57 58 59 59 59 59 60 60 60 59 59 59 60 60 59 59 59 60 59 59 58 58 59 59 59 59 60 60
57 56 55 55 54 53 53 53 54 54 54 53 53 53 54 55 56 57 57 58 59 59 59 59 59 59 59 60 59 59 59 59 59 59 58 58 59 59 59 60 60 60 60
54 53 53 54 54 54 53 52 52 53 53 53 53 53 54 55 56 56 56 57 57 58 59 59 60 60 59 59 59 58 58 58 58 58 58 58 59 59 59 59 60 60 61
52 51 51 51 51 51 52 51 51 51 52 53 54 54 55 55 56 56 56 57 58 58 59 59 59 59 58 59 58 58 58 58 58 58 58 58 59 59 60 60 61 61 62
49 49 49 48 48 49 50 50 50 50 51 52 53 55 55 55 56 57 57 58 58 58 58 58 58 58 57 57 58 58 58 59 60 60 60 60 60 61 61 62 62 63 63
Wind_Direction
255 255 256 257 258 259 260 261 261 262 263 263 264 265 266 267 269 270 272 274 275 277 278 280 281 283 284 285 287 288 289 290 292 293 293 294 295 296 296 297 298 299 300
255 255 256 257 257 258 259 260 261 262 263 263 264 265 266 267 268 270 271 273 275 276 278 279 281 282 283 284 285 287 288 289 291 292 292 293 293 294 295 295 296 297 298
255 255 256 257 257 258 259 259 260 261 262 263 264 265 266 267 268 270 271 272 274 276 277 279 280 281 282 283 284 286 287 288 289 290 291 291 291 293 294 294 295 295 296
255 256 257 257 258 258 259 260 260 260 261 262 263 264 265 267 268 269 271 272 273 275 276 278 280 281 281 282 283 284 286 287 288 289 290 290 290 291 293 293 294 295 295
256 257 258 259 259 259 259 260 260 261 261 262 263 264 265 267 268 270 271 272 273 274 275 277 279 280 281 281 283 284 286 287 288 289 290 290 291 291 291 292 293 293 294
257 258 259 259 260 260 261 261 261 261 262 263 263 264 265 267 268 269 270 271 272 273 274 276 277 279 280 281 282 283 284 285 287 288 289 289 289 290 290 290 292 292 292
257 258 258 259 259 260 260 261 261 262 263 263 264 264 265 266 267 268 269 270 271 272 274 275 276 277 279 280 281 282 283 284 285 285 287 288 287 288 289 290 290 291 290
258 258 258 259 259 260 260 261 262 262 262 263 264 264 265 266 266 267 268 269 270 272 273 275 276 276 277 279 279 280 281 282 283 284 285 286 286 287 288 289 289 289 290
259 259 259 259 260 260 261 261 262 262 262 262 264 264 265 265 265 266 267 268 270 271 273 274 275 275 276 277 278 278 279 280 281 283 284 284 285 285 287 287 287 288 289
261 261 260 261 261 261 262 262 262 263 263 263 263 264 264 265 265 266 267 268 270 271 272 273 274 274 275 275 276 276 277 279 280 282 283 283 284 284 285 286 287 288 289
262 263 263 263 263 263 262 262 262 263 263 263 263 263 263 264 265 266 267 268 270 270 271 272 272 273 273 274 274 275 277 278 279 280 281 282 283 284 284 285 286 287 289
264 264 264 264 265 265 264 263 263 263 263 263 263 263 262 263 264 265 267 268 269 269 270 271 271 272 272 272 274 275 276 277 278 279 281 281 282 283 284 285 285 287 288
265 265 264 264 264 264 264 264 264 264 263 263 263 263 263 263 264 265 266 267 267 268 269 269 270 270 271 272 273 274 275 276 277 278 279 280 281 281 282 283 285 287 287
266 266 265 265 264 264 264 264 265 265 264 264 264 264 264 264 264 264 265 266 266 267 268 268 268 269 270 271 273 274 275 276 276 277 278 279 280 281 282 283 284 286 287
268 268 267 266 265 264 264 265 265 265 266 265 265 265 265 264 263 264 264 264 264 265 266 266 267 269 270 271 272 273 274 275 276 277 278 278 279 280 281 283 284 285 285
269 269 268 267 267 266 266 266 265 265 265 265 264 264 264 263 262 262 263 263 264 264 264 265 266 267 268 269 270 271 273 274 275 276 277 278 279 280 281 282 283 283 284
270 270 270 270 269 268 267 267 265 264 264 264 264 263 262 262 261 261 261 262 263 263 263 264 265 266 267 268 269 270 272 273 274 275 276 277 278 279 280 281 282 282 284
271 271 271 271 270 269 268 267 266 263 261 262 262 261 260 260 260 260 261 261 262 263 263 264 264 265 265 267 268 270 272 273 273 274 276 276 277 277 278 280 281 281 283
272 272 272 271 270 269 268 266 264 263 262 261 260 260 259 259 259 259 260 261 261 262 262 263 263 264 265 266 268 270 272 272 273 274 274 275 276 277 277 278 280 281 282
272 272 272 272 270 269 267 265 264 263 262 261 261 259 258 259 259 260 260 260 260 261 261 262 263 264 265 266 268 269 270 272 273 273 274 274 275 276 277 278 279 281 282
272 272 272 271 271 269 268 266 265 264 263 262 260 259 258 258 260 260 260 260 261 261 262 262 263 264 265 266 267 268 270 271 272 272 273 273 274 275 276 278 279 280 282
272 272 272 271 271 270 269 267 266 265 265 263 262 260 259 259 259 260 260 260 260 261 261 262 262 263 264 266 267 268 269 270 271 272 272 273 274 275 276 277 279 280 281
272 272 271 270 270 270 270 269 267 265 264 263 263 261 260 261 260 260 260 261 261 261 262 263 263 263 264 266 267 267 269 270 271 271 272 272 273 274 276 277 279 280 281
271 270 270 271 270 270 269 269 268 267 265 264 263 261 261 261 260 260 261 261 261 262 263 264 264 265 265 266 267 267 269 269 270 271 272 272 273 275 276 277 279 280 282
270 270 271 271 270 269 269 269 269 268 267 265 264 263 262 262 261 261 262 262 262 263 263 264 265 265 265 266 267 267 268 269 270 271 272 273 274 275 276 278 279 281 283
271 271 271 271 271 270 269 269 269 269 268 267 266 265 264 263 263 262 262 262 262 263 263 263 264 264 264 265 266 267 268 269 271 272 272 272 273 275 276 278 280 281 283
Height
5733 5735 5738 5741 5743 5745 5746 5748 5749 5750 5751 5752 5753 5753 5754 5753 5753 5752 5752 5752 5751 5750 5749 5748 5747 5745 5743 5741 5738 5736 5734 5731 5731 5731 5727 5723 5719 5716 5712 5708 5704 5700 5695
5717 5720 5722 5725 5727 5729 5731 5733 5734 5735 5736 5737 5738 5738 5739 5739 5739 5739 5739 5738 5737 5737 5736 5734 5733 5731 5730 5728 5726 5724 5721 5718 5717 5717 5715 5711 5708 5704 5700 5697 5693 5688 5684
5702 5704 5707 5709 5711 5713 5715 5717 5718 5719 5721 5722 5722 5723 5724 5724 5724 5724 5724 5723 5723 5722 5721 5720 5719 5717 5716 5714 5712 5710 5708 5705 5703 5702 5702 5698 5695 5692 5688 5685 5681 5677 5672
5686 5689 5691 5693 5695 5697 5699 5700 5702 5703 5704 5706 5707 5707 5708 5709 5709 5709 5709 5708 5708 5708 5707 5706 5705 5704 5702 5700 5698 5697 5694 5692 5690 5688 5687 5685 5682 5678 5675 5672 5669 5664 5660
5670 5673 5676 5677 5679 5680 5682 5683 5685 5686 5688 5689 5690 5691 5692 5693 5693 5693 5693 5693 5692 5692 5692 5691 5690 5689 5688 5686 5684 5682 5680 5678 5676 5674 5673 5671 5669 5665 5663 5659 5656 5652 5649
5655 5657 5659 5661 5663 5664 5666 5667 5668 5670 5671 5672 5674 5675 5676 5677 5678 5677 5677 5676 5676 5676 5676 5676 5675 5674 5673 5671 5669 5668 5666 5664 5662 5660 5659 5657 5655 5652 5649 5646 5642 5639 5637
5639 5641 5643 5644 5645 5647 5648 5650 5652 5653 5654 5655 5657 5658 5659 5661 5661 5661 5660 5660 5660 5660 5660 5660 5660 5659 5657 5656 5654 5653 5651 5649 5648 5646 5645 5644 5641 5639 5635 5632 5629 5626 5623
5622 5624 5625 5627 5628 5630 5631 5633 5634 5635 5636 5638 5639 5640 5642 5643 5644 5644 5643 5642 5643 5644 5644 5644 5644 5643 5642 5641 5639 5638 5636 5635 5633 5631 5630 5629 5626 5624 5621 5618 5615 5612 5610
5604 5606 5607 5608 5610 5612 5613 5615 5616 5617 5618 5620 5621 5623 5624 5626 5626 5626 5625 5625 5626 5628 5628 5628 5628 5627 5627 5625 5623 5623 5621 5620 5618 5616 5614 5613 5611 5609 5606 5604 5601 5598 5596
5586 5588 5589 5589 5591 5593 5595 5596 5597 5598 5600 5601 5603 5604 5606 5608 5609 5609 5608 5608 5609 5611 5611 5611 5611 5611 5610 5608 5607 5607 5606 5605 5603 5601 5599 5598 5596 5594 5592 5589 5587 5584 5582
5567 5569 5570 5571 5572 5574 5576 5577 5578 5579 5580 5582 5584 5586 5587 5589 5591 5591 5591 5591 5592 5593 5594 5594 5594 5594 5593 5592 5591 5591 5590 5589 5587 5586 5584 5583 5581 5579 5577 5575 5573 5570 5568
5548 5550 5551 5552 5553 5554 5556 5557 5558 5559 5561 5563 5564 5567 5569 5570 5572 5572 5573 5573 5574 5575 5576 5577 5577 5577 5576 5576 5575 5574 5574 5572 5571 5570 5569 5568 5567 5565 5563 5560 5558 5555 5553
5529 5530 5532 5533 5534 5535 5535 5537 5538 5539 5540 5543 5545 5547 5550 5551 5553 5554 5554 5555 5556 5557 5558 5559 5559 5559 5559 5559 5558 5558 5557 5556 5556 5555 5554 5553 5551 5549 5547 5545 5543 5541 5538
5510 5511 5512 5512 5513 5514 5515 5516 5517 5519 5520 5521 5524 5526 5529 5531 5533 5535 5535 5537 5537 5538 5540 5541 5541 5542 5542 5542 5542 5541 5541 5540 5540 5539 5538 5537 5535 5534 5532 5530 5528 5526 5523
5490 5491 5491 5492 5492 5493 5494 5495 5497 5498 5499 5500 5503 5505 5507 5511 5513 5514 5515 5517 5518 5520 5521 5522 5523 5524 5525 5525 5525 5525 5524 5524 5523 5523 5521 5520 5519 5518 5516 5514 5512 5510 5508
5470 5471 5471 5471 5472 5472 5473 5475 5476 5477 5479 5479 5481 5484 5486 5489 5492 5494 5496 5497 5499 5500 5502 5504 5505 5506 5507 5507 5508 5508 5508 5507 5506 5505 5505 5504 5503 5501 5500 5498 5496 5494 5492
5451 5452 5452 5451 5451 5452 5452 5453 5455 5457 5458 5459 5461 5463 5466 5469 5471 5473 5475 5477 5479 5481 5483 5485 5487 5488 5489 5489 5490 5490 5490 5490 5489 5488 5487 5487 5486 5485 5483 5482 5480 5478 5476
5433 5433 5433 5433 5432 5432 5432 5433 5434 5436 5438 5439 5442 5443 5446 5449 5451 5453 5456 5458 5460 5462 5464 5466 5468 5469 5470 5471 5471 5472 5472 5472 5471 5471 5470 5470 5469 5468 5467 5465 5464 5462 5460
5415 5415 5414 5414 5414 5413 5413 5413 5414 5416 5418 5420 5422 5424 5427 5429 5431 5434 5436 5438 5441 5443 5445 5447 5448 5450 5451 5452 5453 5453 5454 5454 5454 5453 5453 5452 5451 5451 5449 5448 5447 5445 5443
5397 5397 5397 5396 5396 5396 5396 5396 5397 5398 5400 5402 5404 5406 5408 5410 5413 5415 5417 5419 5422 5424 5425 5427 5429 5431 5432 5433 5434 5434 5435 5435 5435 5435 5435 5434 5434 5433 5432 5431 5429 5427 5426
5379 5379 5379 5379 5379 5379 5379 5379 5380 5381 5382 5384 5386 5388 5390 5393 5395 5397 5399 5401 5403 5405 5407 5408 5410 5411 5413 5414 5415 5415 5416 5416 5417 5417 5416 5416 5415 5415 5414 5413 5411 5410 5408
5362 5362 5362 5362 5362 5362 5362 5362 5363 5364 5365 5367 5368 5371 5372 5375 5377 5379 5381 5382 5384 5386 5387 5389 5391 5392 5394 5395 5396 5396 5397 5397 5397 5398 5397 5397 5397 5396 5395 5394 5393 5391 5389
5344 5344 5344 5344 5344 5345 5345 5345 5346 5347 5348 5350 5351 5353 5355 5357 5359 5361 5362 5364 5366 5367 5369 5371 5372 5373 5374 5375 5376 5377 5377 5378 5378 5378 5378 5378 5378 5377 5376 5375 5374 5372 5370
5326 5326 5326 5327 5327 5328 5328 5329 5329 5330 5331 5332 5334 5335 5337 5339 5341 5342 5344 5346 5347 5349 5350 5351 5353 5354 5355 5356 5356 5357 5357 5358 5358 5358 5359 5359 5358 5358 5357 5356 5355 5353 5351
5309 5309 5309 5309 5310 5311 5312 5312 5313 5313 5314 5315 5316 5318 5319 5321 5322 5324 5325 5327 5329 5330 5331 5332 5333 5334 5335 5336 5337 5337 5338 5338 5339 5339 5339 5339 5339 5338 5337 5336 5335 5333 5331
5293 5293 5293 5293 5294 5294 5295 5295 5296 5296 5297 5298 5299 5300 5301 5302 5304 5305 5307 5308 5309 5311 5312 5313 5313 5314 5315 5316 5317 5318 5319 5319 5319 5319 5319 5319 5319 5318 5317 5316 5314 5312 5310